When you browse on this site, cookies collect data to enhance your experience and personalize the content and advertising you see.
Visit our Privacy Policy to learn more. By continuing to use the site, you agree to this use of cookies and data.
  • In Deutschland
  • Länderverzeichnis
  • Für 7 Tage
  • Wassertemperatur
  • Wetterkarte
  • Widgets
  • user-avatar
    Anmelden

    Stündliche Wetter Miedzypole

    Heute, 18 August, Sonntag

    Zeit Temperatur Niederschläge Wind Luftdruck Luftfeuchtigkeit
    00:00 +18°C° 0 mm 2 m/S 750 mmHg 73%
    01:00 +18°C° 0 mm 2 m/S 750 mmHg 72%
    02:00 +17°C° 0 mm 2 m/S 750 mmHg 72%
    03:00 +17°C° 0 mm 2 m/S 749 mmHg 73%
    04:00 +17°C° 0 mm 2 m/S 749 mmHg 74%
    05:00 +18°C° 0 mm 2 m/S 749 mmHg 72%
    06:00 +19°C° 0 mm 3 m/S 749 mmHg 70%
    07:00 +20°C° 0 mm 3 m/S 749 mmHg 68%
    08:00 +22°C° 0 mm 3 m/S 749 mmHg 62%
    09:00 +25°C° 0 mm 3 m/S 749 mmHg 55%
    10:00 +26°C° 0 mm 3 m/S 749 mmHg 49%
    11:00 +27°C° 0 mm 4 m/S 749 mmHg 47%
    12:00 +28°C° 0 mm 4 m/S 749 mmHg 45%
    13:00 +29°C° 0 mm 4 m/S 749 mmHg 44%
    14:00 +28°C° 0 mm 4 m/S 748 mmHg 46%
    15:00 +28°C° 0 mm 4 m/S 748 mmHg 49%
    16:00 +27°C° 0 mm 4 m/S 748 mmHg 51%
    17:00 +26°C° 0 mm 4 m/S 748 mmHg 53%
    18:00 +25°C° 0 mm 3 m/S 748 mmHg 55%
    19:00 +24°C° 0 mm 3 m/S 748 mmHg 57%
    20:00 +22°C° 0 mm 3 m/S 748 mmHg 62%
    21:00 +22°C° 0 mm 3 m/S 748 mmHg 67%
    22:00 +21°C° 0 mm 3 m/S 748 mmHg 72%
    23:00 +21°C° 0.1 mm 3 m/S 748 mmHg 76%

    Morgen, 19 August, Montag

    Zeit Temperatur Niederschläge Wind Luftdruck Luftfeuchtigkeit
    00:00 +21°C° 0.1 mm 3 m/S 748 mmHg 79%
    01:00 +20°C° 0.1 mm 3 m/S 748 mmHg 83%
    02:00 +20°C° 0 mm 3 m/S 749 mmHg 83%
    03:00 +20°C° 0 mm 3 m/S 749 mmHg 84%
    04:00 +20°C° 0 mm 3 m/S 749 mmHg 85%
    05:00 +21°C° 0.2 mm 3 m/S 749 mmHg 83%
    06:00 +22°C° 0.2 mm 3 m/S 750 mmHg 81%
    07:00 +22°C° 0.2 mm 3 m/S 750 mmHg 79%
    08:00 +24°C° 0.3 mm 3 m/S 750 mmHg 77%
    09:00 +25°C° 0.3 mm 2 m/S 751 mmHg 76%
    10:00 +25°C° 0.3 mm 2 m/S 751 mmHg 74%
    11:00 +26°C° 0.1 mm 2 m/S 751 mmHg 69%
    12:00 +27°C° 0.1 mm 2 m/S 751 mmHg 64%
    13:00 +28°C° 0.1 mm 1 m/S 751 mmHg 59%
    14:00 +28°C° 0.9 mm 2 m/S 751 mmHg 64%
    15:00 +27°C° 0.9 mm 3 m/S 751 mmHg 68%
    16:00 +26°C° 0.9 mm 3 m/S 751 mmHg 73%
    17:00 +25°C° 0.6 mm 3 m/S 752 mmHg 77%
    18:00 +22°C° 0.6 mm 3 m/S 752 mmHg 81%
    19:00 +21°C° 0.6 mm 2 m/S 752 mmHg 85%
    20:00 +20°C° 0 mm 2 m/S 753 mmHg 86%
    21:00 +21°C° 0 mm 1 m/S 753 mmHg 87%
    22:00 +20°C° 0 mm 1 m/S 754 mmHg 89%
    23:00 +20°C° 0 mm 1 m/S 754 mmHg 89%

    übermorgen, 20 August, Dienstag

    Zeit Temperatur Niederschläge Wind Luftdruck Luftfeuchtigkeit
    00:00 +20°C° 0 mm 1 m/S 754 mmHg 90%
    01:00 +19°C° 0 mm 1 m/S 754 mmHg 91%
    02:00 +19°C° 0 mm 1 m/S 755 mmHg 91%
    03:00 +18°C° 0 mm 1 m/S 755 mmHg 92%
    04:00 +18°C° 0 mm 1 m/S 755 mmHg 92%
    05:00 +19°C° 0 mm 1 m/S 755 mmHg 87%
    06:00 +20°C° 0 mm 1 m/S 756 mmHg 83%
    07:00 +21°C° 0 mm 1 m/S 756 mmHg 79%
    08:00 +23°C° 0 mm 1 m/S 756 mmHg 70%
    09:00 +24°C° 0 mm 1 m/S 756 mmHg 61%
    10:00 +26°C° 0 mm 1 m/S 757 mmHg 52%
    11:00 +26°C° 0 mm 1 m/S 757 mmHg 48%
    12:00 +27°C° 0 mm 1 m/S 757 mmHg 44%
    13:00 +28°C° 0 mm 1 m/S 757 mmHg 40%
    14:00 +28°C° 0 mm 1 m/S 756 mmHg 40%
    15:00 +28°C° 0 mm 1 m/S 756 mmHg 41%
    16:00 +28°C° 0 mm 1 m/S 756 mmHg 41%
    17:00 +26°C° 0 mm 1 m/S 756 mmHg 45%
    18:00 +25°C° 0 mm 2 m/S 756 mmHg 49%
    19:00 +24°C° 0 mm 2 m/S 756 mmHg 53%
    20:00 +23°C° 0 mm 2 m/S 756 mmHg 54%
    21:00 +22°C° 0 mm 3 m/S 757 mmHg 56%
    22:00 +21°C° 0 mm 3 m/S 757 mmHg 58%
    23:00 +21°C° 0 mm 3 m/S 757 mmHg 58%

    21 August, Mittwoch

    Zeit Temperatur Niederschläge Wind Luftdruck Luftfeuchtigkeit
    00:00 +21°C° 0 mm 3 m/S 757 mmHg 59%
    01:00 +21°C° 0 mm 3 m/S 756 mmHg 59%
    02:00 +21°C° 0 mm 3 m/S 756 mmHg 62%
    03:00 +20°C° 0 mm 3 m/S 756 mmHg 64%
    04:00 +20°C° 0 mm 4 m/S 756 mmHg 67%
    05:00 +20°C° 0.3 mm 4 m/S 756 mmHg 72%
    06:00 +19°C° 0.3 mm 4 m/S 756 mmHg 78%
    07:00 +19°C° 0.3 mm 4 m/S 755 mmHg 83%
    08:00 +19°C° 2.5 mm 3 m/S 755 mmHg 86%
    09:00 +19°C° 2.5 mm 3 m/S 755 mmHg 89%
    10:00 +19°C° 2.5 mm 3 m/S 755 mmHg 92%
    11:00 +18°C° 1 mm 4 m/S 756 mmHg 91%
    12:00 +16°C° 1 mm 6 m/S 756 mmHg 91%
    13:00 +16°C° 1 mm 7 m/S 756 mmHg 90%
    14:00 +15°C° 0.1 mm 6 m/S 756 mmHg 90%
    15:00 +15°C° 0.1 mm 5 m/S 757 mmHg 89%
    16:00 +15°C° 0.1 mm 4 m/S 757 mmHg 88%
    17:00 +15°C° 0 mm 4 m/S 758 mmHg 89%
    18:00 +14°C° 0 mm 3 m/S 758 mmHg 90%
    19:00 +14°C° 0 mm 3 m/S 758 mmHg 91%
    20:00 +15°C° 0 mm 2 m/S 759 mmHg 92%
    21:00 +14°C° 0 mm 2 m/S 759 mmHg 93%
    22:00 +14°C° 0 mm 2 m/S 759 mmHg 94%
    23:00 +14°C° 0 mm 2 m/S 760 mmHg 94%

    22 August, Donnerstag

    Zeit Temperatur Niederschläge Wind Luftdruck Luftfeuchtigkeit
    00:00 +14°C° 0 mm 2 m/S 760 mmHg 95%
    01:00 +13°C° 0 mm 2 m/S 760 mmHg 95%
    02:00 +13°C° 0 mm 2 m/S 760 mmHg 95%
    03:00 +13°C° 0 mm 2 m/S 760 mmHg 95%
    04:00 +13°C° 0 mm 2 m/S 760 mmHg 96%
    05:00 +14°C° 0 mm 2 m/S 760 mmHg 91%
    06:00 +15°C° 0 mm 2 m/S 760 mmHg 87%
    07:00 +16°C° 0 mm 2 m/S 760 mmHg 82%
    08:00 +17°C° 0 mm 2 m/S 760 mmHg 74%
    09:00 +18°C° 0 mm 2 m/S 760 mmHg 66%
    10:00 +20°C° 0 mm 2 m/S 760 mmHg 58%
    11:00 +21°C° 0 mm 2 m/S 760 mmHg 55%
    12:00 +23°C° 0 mm 2 m/S 760 mmHg 51%
    13:00 +23°C° 0 mm 2 m/S 759 mmHg 47%
    14:00 +23°C° 0 mm 2 m/S 759 mmHg 48%
    15:00 +23°C° 0 mm 2 m/S 759 mmHg 48%
    16:00 +23°C° 0 mm 2 m/S 759 mmHg 48%
    17:00 +21°C° 0 mm 2 m/S 759 mmHg 54%
    18:00 +19°C° 0 mm 2 m/S 759 mmHg 60%
    19:00 +18°C° 0 mm 2 m/S 759 mmHg 66%
    20:00 +18°C° 0 mm 1 m/S 759 mmHg 68%
    21:00 +16°C° 0 mm 1 m/S 759 mmHg 71%
    22:00 +15°C° 0 mm 1 m/S 760 mmHg 73%
    23:00 +15°C° 0 mm 1 m/S 760 mmHg 75%

    23 August, Freitag

    Zeit Temperatur Niederschläge Wind Luftdruck Luftfeuchtigkeit
    00:00 +14°C° 0 mm 1 m/S 760 mmHg 78%
    01:00 +14°C° 0 mm 2 m/S 760 mmHg 80%
    02:00 +14°C° 0 mm 2 m/S 760 mmHg 82%
    03:00 +13°C° 0 mm 1 m/S 760 mmHg 84%
    04:00 +13°C° 0 mm 1 m/S 760 mmHg 86%
    05:00 +14°C° 0 mm 1 m/S 760 mmHg 81%
    06:00 +16°C° 0 mm 1 m/S 760 mmHg 76%
    07:00 +18°C° 0 mm 1 m/S 760 mmHg 71%
    08:00 +20°C° 0 mm 1 m/S 760 mmHg 64%
    09:00 +21°C° 0 mm 1 m/S 760 mmHg 58%
    10:00 +23°C° 0 mm 1 m/S 760 mmHg 52%
    11:00 +24°C° 0 mm 1 m/S 760 mmHg 49%
    12:00 +24°C° 0 mm 2 m/S 760 mmHg 46%
    13:00 +25°C° 0 mm 2 m/S 760 mmHg 42%
    14:00 +24°C° 0 mm 2 m/S 760 mmHg 43%
    15:00 +24°C° 0 mm 3 m/S 759 mmHg 43%
    16:00 +24°C° 0 mm 3 m/S 759 mmHg 44%
    17:00 +21°C° 0 mm 3 m/S 759 mmHg 49%
    18:00 +20°C° 0 mm 2 m/S 759 mmHg 54%
    19:00 +18°C° 0 mm 2 m/S 760 mmHg 59%
    20:00 +17°C° 0 mm 2 m/S 760 mmHg 61%
    21:00 +17°C° 0 mm 2 m/S 760 mmHg 62%
    22:00 +16°C° 0 mm 1 m/S 760 mmHg 63%
    23:00 +16°C° 0 mm 1 m/S 760 mmHg 64%
    Mehr zeigen